TimeEDT,TemperatureF,Dew PointF,Humidity,Sea Level PressureIn,VisibilityMPH,Wind Direction,Wind SpeedMPH,Gust SpeedMPH,PrecipitationIn,Events,Conditions,WindDirDegrees,DateUTC
12:56 AM,32.9,30.0,89,30.23,8.0,Calm,Calm,-,N/A,,Clear,0,2012-10-08 04:56:00
1:56 AM,34.0,30.0,85,30.23,9.0,Calm,Calm,-,N/A,,Clear,0,2012-10-08 05:56:00
2:56 AM,32.9,30.0,89,30.23,8.0,Calm,Calm,-,N/A,,Clear,0,2012-10-08 06:56:00
3:56 AM,31.1,28.0,88,30.23,8.0,Calm,Calm,-,N/A,,Clear,0,2012-10-08 07:56:00
4:56 AM,30.0,28.0,92,30.24,8.0,Calm,Calm,-,N/A,,Clear,0,2012-10-08 08:56:00
5:56 AM,28.0,26.1,92,30.25,8.0,Calm,Calm,-,N/A,,Clear,0,2012-10-08 09:56:00
6:56 AM,28.0,25.2,89,30.27,8.0,West,3.5,-,N/A,,Clear,260,2012-10-08 10:56:00
7:56 AM,28.0,25.2,89,30.27,7.0,Calm,Calm,-,N/A,,Clear,0,2012-10-08 11:56:00
8:56 AM,31.1,28.0,88,30.27,6.0,Calm,Calm,-,N/A,,Clear,0,2012-10-08 12:56:00
9:56 AM,39.9,31.1,71,30.27,7.0,Calm,Calm,-,N/A,,Clear,0,2012-10-08 13:56:00
10:56 AM,43.0,28.0,56,30.28,7.0,Calm,Calm,-,N/A,,Clear,0,2012-10-08 14:56:00
11:56 AM,45.9,27.1,48,30.29,8.0,Variable,6.9,-,N/A,,Clear,0,2012-10-08 15:56:00
12:56 PM,45.9,26.1,46,30.26,8.0,SW,5.8,-,N/A,,Clear,220,2012-10-08 16:56:00
1:56 PM,48.9,28.0,44,30.23,6.0,South,8.1,-,N/A,,Haze,180,2012-10-08 17:56:00
2:56 PM,50.9,29.1,43,30.21,7.0,SSW,8.1,-,N/A,,Clear,200,2012-10-08 18:56:00
3:21 PM,51.8,28.4,41,30.19,4.0,Variable,6.9,-,N/A,,Haze,0,2012-10-08 19:21:00
3:56 PM,50.9,28.0,41,30.20,7.0,SSW,9.2,-,N/A,,Clear,200,2012-10-08 19:56:00
4:46 PM,53.6,28.4,38,30.17,1.8,SW,8.1,-,N/A,,Haze,220,2012-10-08 20:46:00
4:49 PM,51.8,28.4,41,30.17,0.8,SW,10.4,-,N/A,,Haze,230,2012-10-08 20:49:00
4:56 PM,52.0,29.1,41,30.18,0.8,Variable,6.9,-,N/A,,Haze,0,2012-10-08 20:56:00
4:58 PM,51.8,28.4,41,30.16,1.2,SW,6.9,-,N/A,,Haze,220,2012-10-08 20:58:00
5:00 PM,51.8,28.4,41,30.16,2.0,SW,5.8,-,N/A,,Haze,230,2012-10-08 21:00:00
5:09 PM,51.8,28.4,41,30.16,7.0,SW,8.1,-,N/A,,Clear,220,2012-10-08 21:09:00
5:56 PM,50.9,29.1,43,30.18,8.0,WSW,9.2,-,N/A,,Clear,240,2012-10-08 21:56:00
6:56 PM,47.8,29.1,48,30.18,8.0,WSW,3.5,-,N/A,,Clear,240,2012-10-08 22:56:00
7:56 PM,43.9,30.0,58,30.19,8.0,South,3.5,-,N/A,,Clear,180,2012-10-08 23:56:00
8:56 PM,37.9,30.0,73,30.19,9.0,South,3.5,-,N/A,,Clear,170,2012-10-09 00:56:00
9:56 PM,41.9,32.9,70,30.20,8.0,South,4.6,-,N/A,,Clear,170,2012-10-09 01:56:00
10:56 PM,39.9,34.0,79,30.20,8.0,South,6.9,-,N/A,,Clear,170,2012-10-09 02:56:00
11:56 PM,38.8,34.0,83,30.20,8.0,South,5.8,-,N/A,,Clear,170,2012-10-09 03:56:00